CW4611 Weather Reports


Display with metric or nautical units.
time (UTC)temp
F
wind
direction
speed
MPH
gust
MPH
rain 1hr
in
rain 24hr
in
rain mn
in
humidity
%
barometer
mb
20170925203605 47 251 2.0 7.0 0.00 0.21 0.00 62 1019.8
20170925203105 47 138 2.0 7.0 0.00 0.21 0.00 53 1019.8
20170925202605 48 250 3.0 10.0 0.00 0.21 0.00 59 1020.0
20170925202105 48 240 2.0 10.0 0.00 0.21 0.00 57 1019.9
20170925201606 47 189 3.0 7.0 0.00 0.21 0.00 53 1019.9
20170925201105 47 241 2.0 7.0 0.00 0.21 0.00 54 1019.9
20170925200605 48 208 2.0 12.0 0.00 0.22 0.00 55 1020.2
20170925200106 47 317 2.0 14.0 0.00 0.22 0.00 56 1020.2
20170925195606 47 241 3.0 14.0 0.00 0.22 0.00 54 1020.2
20170925195106 47 279 3.0 9.0 0.00 0.22 0.00 61 1020.2
20170925194605 47 175 3.0 10.0 0.00 0.22 0.00 56 1020.2
20170925194105 47 199 3.0 10.0 0.00 0.22 0.00 58 1020.2
20170925193605 46 231 2.0 9.0 0.00 0.22 0.00 65 1020.2
20170925193105 46 155 4.0 10.0 0.00 0.22 0.00 64 1020.3
20170925192605 45 141 5.0 10.0 0.00 0.23 0.00 64 1020.4
20170925192106 45 139 3.0 7.0 0.00 0.23 0.00 64 1020.5
20170925191605 45 207 3.0 8.0 0.00 0.23 0.00 63 1020.6
20170925191105 45 130 1.0 8.0 0.00 0.23 0.00 64 1020.6
20170925190606 45 201 2.0 7.0 0.00 0.23 0.00 62 1020.6
20170925190106 46 189 2.0 12.0 0.00 0.23 0.00 63 1020.6
20170925185605 46 207 3.0 12.0 0.00 0.23 0.00 67 1020.6
20170925185105 46 229 5.0 12.0 0.00 0.23 0.00 66 1020.6
20170925184605 45 150 4.0 12.0 0.00 0.24 0.00 69 1020.6
20170925184106 45 177 3.0 12.0 0.00 0.24 0.00 71 1020.6
20170925183605 44 183 5.0 12.0 0.00 0.24 0.00 70 1020.6
20170925183106 44 160 4.0 12.0 0.00 0.24 0.00 70 1020.6
20170925182605 44 181 3.0 12.0 0.00 0.24 0.00 70 1020.6
20170925182106 44 215 4.0 12.0 0.00 0.25 0.00 73 1020.6
20170925181605 44 209 4.0 7.0 0.00 0.25 0.00 73 1020.6
20170925181105 43 201 1.0 7.0 0.00 0.25 0.00 76 1020.6
20170925180605 43 155 2.0 7.0 0.00 0.25 0.00 75 1020.4
20170925180106 43 265 1.0 6.0 0.00 0.25 0.00 78 1020.4
20170925175605 42 164 2.0 10.0 0.00 0.25 0.00 77 1020.4
20170925175105 42 182 1.0 10.0 0.00 0.26 0.00 78 1020.4
20170925174606 42 179 3.0 10.0 0.00 0.27 0.00 78 1020.6
20170925174106 42 176 1.0 7.0 0.00 0.27 0.00 79 1020.6
20170925173605 42 226 2.0 7.0 0.00 0.27 0.00 80 1020.6
20170925173106 42 147 2.0 7.0 0.00 0.27 0.00 80 1020.6
20170925172605 41 173 2.0 7.0 0.00 0.27 0.00 80 1020.8
20170925172105 41 180 3.0 6.0 0.00 0.27 0.00 81 1020.8
20170925171605 41 196 2.0 6.0 0.00 0.27 0.00 82 1020.8
20170925171106 41 295 2.0 5.0 0.00 0.27 0.00 82 1020.9
20170925170605 41 252 2.0 5.0 0.00 0.27 0.00 84 1021.1
20170925170106 41 216 2.0 5.0 0.00 0.27 0.00 86 1021.6
20170925165605 41 219 0.0 5.0 0.00 0.27 0.00 87 1021.6
20170925165105 41 221 2.0 5.0 0.00 0.27 0.00 89 1021.6
20170925164606 40 254 2.0 5.0 0.00 0.27 0.00 89 1021.6
20170925164106 40 220 1.0 5.0 0.00 0.27 0.00 90 1021.6
20170925163605 39 207 1.0 5.0 0.00 0.28 0.00 90 1021.0
20170925163105 39 225 0.0 3.0 0.00 0.28 0.00 91 1021.0
20170925162605 39 222 1.0 5.0 0.00 0.28 0.00 92 1021.0
20170925162106 38 186 1.0 5.0 0.00 0.28 0.00 92 1021.0
20170925161606 37 291 0.0 3.0 0.00 0.28 0.00 92 1021.0
20170925161105 37 291 1.0 3.0 0.00 0.28 0.00 92 1021.0
20170925160605 37 291 0.0 0.0 0.00 0.28 0.00 92 1021.0
20170925160106 36 291 0.0 0.0 0.00 0.28 0.00 92 1021.0
20170925155605 36 291 0.0 0.0 0.00 0.28 0.00 92 1021.0
20170925155105 36 291 0.0 0.0 0.00 0.28 0.00 92 1021.0
20170925154605 35 291 0.0 0.0 0.00 0.28 0.00 92 1021.1
20170925154106 35 291 0.0 0.0 0.00 0.28 0.00 92 1021.1
20170925153605 35 291 0.0 0.0 0.00 0.28 0.00 92 1021.1
20170925153105 35 291 0.0 0.0 0.00 0.28 0.00 92 1021.1
20170925152605 34 291 0.0 0.0 0.00 0.28 0.00 92 1020.9
20170925152105 34 291 0.0 0.0 0.00 0.28 0.00 92 1020.9
20170925151605 34 291 0.0 0.0 0.00 0.28 0.00 92 1020.9
20170925151105 34 291 0.0 0.0 0.00 0.29 0.00 92 1020.9
20170925150605 34 291 0.0 0.0 0.00 0.29 0.00 92 1020.9
20170925150106 34 291 0.0 0.0 0.00 0.29 0.00 92 1020.9
20170925145605 34 291 0.0 0.0 0.00 0.29 0.00 92 1020.9
20170925145105 33 291 0.0 0.0 0.00 0.29 0.00 92 1020.5
20170925144605 33 291 0.0 0.0 0.00 0.29 0.00 92 1020.5
20170925144105 33 291 0.0 0.0 0.00 0.29 0.00 92 1020.5
20170925143605 33 291 0.0 0.0 0.00 0.29 0.00 92 1020.5
20170925143105 33 291 0.0 0.0 0.00 0.29 0.00 92 1020.4
20170925142605 33 291 0.0 0.0 0.00 0.30 0.00 92 1020.3
20170925142105 33 291 0.0 0.0 0.00 0.30 0.00 92 1020.3
20170925141605 32 291 0.0 0.0 0.00 0.30 0.00 92 1020.3
20170925141105 32 291 0.0 0.0 0.00 0.30 0.00 91 1020.3
20170925140605 32 291 0.0 0.0 0.00 0.30 0.00 91 1020.2
20170925140105 32 291 0.0 0.0 0.00 0.30 0.00 91 1020.2
20170925135605 32 291 0.0 0.0 0.00 0.30 0.00 91 1020.1
20170925135105 32 291 0.0 0.0 0.00 0.30 0.00 91 1020.1
20170925134605 32 291 0.0 0.0 0.00 0.30 0.00 91 1020.1
20170925134105 32 291 0.0 0.0 0.00 0.30 0.00 91 1020.1
20170925133605 32 291 0.0 0.0 0.00 0.30 0.00 91 1020.1
20170925133105 32 291 0.0 0.0 0.00 0.30 0.00 91 1020.1
20170925132605 32 291 0.0 0.0 0.00 0.31 0.00 91 1020.1
20170925132105 32 291 0.0 0.0 0.00 0.31 0.00 91 1019.9
20170925131606 32 291 0.0 0.0 0.00 0.31 0.00 91 1019.9
20170925131105 32 291 0.0 0.0 0.00 0.31 0.00 91 1019.9
20170925130605 32 291 0.0 0.0 0.00 0.31 0.00 91 1019.9
20170925130105 32 291 0.0 0.0 0.00 0.31 0.00 91 1019.9
20170925125605 32 291 0.0 0.0 0.00 0.31 0.00 91 1019.9
20170925125105 32 291 0.0 0.0 0.00 0.32 0.00 91 1019.9
20170925124605 32 291 0.0 0.0 0.00 0.32 0.00 91 1019.9
20170925124105 32 291 0.0 0.0 0.00 0.32 0.00 91 1019.8
20170925123605 32 291 0.0 0.0 0.00 0.33 0.00 91 1019.8
20170925123105 32 291 0.0 0.0 0.00 0.33 0.00 91 1019.8
20170925122605 32 291 0.0 0.0 0.00 0.33 0.00 91 1019.8
20170925122105 32 291 0.0 0.0 0.00 0.33 0.00 91 1019.7
20170925121605 32 291 0.0 0.0 0.00 0.34 0.00 91 1019.7
20170925121105 32 291 0.0 0.0 0.00 0.34 0.00 91 1019.7
20170925120606 32 291 0.0 0.0 0.00 0.34 0.00 91 1019.6
20170925120105 32 291 0.0 0.0 0.00 0.35 0.00 91 1019.6
20170925115605 32 291 0.0 0.0 0.00 0.35 0.00 91 1019.7
20170925115105 32 291 0.0 0.0 0.00 0.36 0.00 91 1019.6
20170925114605 32 291 0.0 0.0 0.00 0.37 0.00 91 1019.6
20170925114105 32 291 0.0 0.0 0.00 0.37 0.00 91 1019.6
20170925113605 32 291 0.0 0.0 0.00 0.38 0.00 91 1019.6
20170925113105 32 291 0.0 0.0 0.00 0.39 0.00 91 1019.6
20170925112605 32 291 0.0 0.0 0.00 0.39 0.00 91 1019.8
20170925112105 32 291 0.0 0.0 0.00 0.40 0.00 91 1019.8
20170925111605 32 291 0.0 0.0 0.00 0.41 0.00 91 1019.8
20170925111105 32 291 0.0 0.0 0.00 0.41 0.00 91 1019.8
20170925110605 32 291 0.0 0.0 0.00 0.42 0.00 91 1019.8
20170925110106 32 291 0.0 0.0 0.00 0.42 0.00 91 1019.8
20170925105605 32 291 0.0 0.0 0.00 0.43 0.00 91 1019.7
20170925105105 32 291 0.0 0.0 0.00 0.43 0.00 91 1019.7
20170925104605 32 291 0.0 0.0 0.00 0.44 0.00 91 1019.7
20170925104105 32 291 0.0 0.0 0.00 0.45 0.00 91 1019.7
20170925103605 32 291 0.0 0.0 0.00 0.46 0.00 91 1019.7
20170925103106 32 291 0.0 0.0 0.00 0.47 0.00 91 1019.7
20170925102605 32 291 0.0 0.0 0.00 0.48 0.00 91 1019.7
20170925102105 32 291 0.0 0.0 0.00 0.49 0.00 91 1019.7
20170925101605 32 291 0.0 0.0 0.00 0.50 0.00 91 1019.7
20170925101105 32 291 0.0 0.0 0.00 0.51 0.00 91 1019.7
20170925100605 32 291 0.0 0.0 0.00 0.51 0.00 91 1019.7
20170925100105 32 291 0.0 0.0 0.00 0.52 0.00 91 1019.7
20170925095605 32 291 0.0 0.0 0.00 0.53 0.00 91 1019.8
20170925095105 32 291 0.0 0.0 0.00 0.53 0.00 91 1019.8
20170925094605 32 291 0.0 0.0 0.00 0.54 0.00 91 1019.8
20170925094105 32 291 0.0 0.0 0.00 0.54 0.00 91 1019.8
20170925093605 32 291 0.0 0.0 0.00 0.55 0.00 91 1019.8
20170925093105 32 291 0.0 0.0 0.00 0.55 0.00 91 1019.8
20170925092605 32 291 0.0 0.0 0.00 0.55 0.00 91 1019.8
20170925092105 32 291 0.0 0.0 0.00 0.56 0.00 91 1019.8
20170925091604 32 291 0.0 0.0 0.00 0.56 0.00 91 1019.8
20170925091105 32 291 0.0 0.0 0.00 0.57 0.00 91 1020.0
20170925090605 32 291 0.0 0.0 0.00 0.57 0.00 91 1020.0
20170925090105 32 291 0.0 0.0 0.00 0.58 0.00 91 1020.0
20170925085604 32 291 0.0 0.0 0.00 0.58 0.00 91 1020.0
20170925085105 32 291 0.0 0.0 0.00 0.58 0.00 91 1020.0
20170925084605 32 291 0.0 0.0 0.00 0.58 0.00 91 1020.1
20170925084105 32 291 0.0 0.0 0.00 0.59 0.00 91 1020.1
20170925083605 32 291 0.0 0.0 0.00 0.59 0.00 91 1020.1
20170925083105 32 291 0.0 0.0 0.00 0.60 0.00 91 1020.1
20170925082605 32 291 0.0 0.0 0.00 0.61 0.00 91 1020.1
20170925082105 32 291 0.0 0.0 0.00 0.61 0.00 91 1020.1
20170925081605 32 291 0.0 0.0 0.00 0.61 0.00 91 1020.1
20170925081105 32 291 0.0 0.0 0.00 0.62 0.00 91 1020.1
20170925080605 32 291 0.0 0.0 0.00 0.62 0.00 91 1020.2
20170925080105 32 291 0.0 0.0 0.00 0.62 0.00 91 1020.2
20170925075605 32 291 0.0 0.0 0.00 0.63 0.00 91 1020.2
20170925075105 32 291 0.0 0.0 0.00 0.63 0.00 91 1020.2
20170925074605 32 291 0.0 0.0 0.00 0.63 0.00 91 1020.2
20170925074105 32 291 0.0 0.0 0.00 0.63 0.00 91 1020.2
20170925073605 33 291 0.0 0.0 0.00 0.63 0.00 91 1020.1
20170925073104 33 291 0.0 0.0 0.00 0.63 0.00 91 1020.1
20170925072605 33 291 0.0 0.0 0.00 0.63 0.00 91 1020.1
20170925072105 33 291 0.0 0.0 0.00 0.63 0.00 91 1020.1
20170925071605 33 291 0.0 0.0 0.00 0.63 0.00 91 1020.1
20170925071105 33 291 0.0 0.0 0.00 0.63 0.00 91 1020.1
20170925070604 33 291 0.0 0.0 0.00 0.63 0.00 91 1020.1
20170925070105 33 291 0.0 0.0 0.00 0.63 0.00 91 1020.0
20170925065605 33 291 0.0 0.0 0.00 0.63 0.00 91 1020.0
20170925065104 33 291 0.0 0.0 0.00 0.63 0.00 91 1020.0
20170925064605 33 291 0.0 0.0 0.00 0.63 0.00 91 1020.0
20170925064104 33 291 0.0 0.0 0.00 0.63 0.00 91 1020.0
20170925063605 33 291 0.0 0.0 0.00 0.63 0.00 91 1020.0
20170925063105 33 291 0.0 0.0 0.00 0.63 0.00 91 1020.0
20170925062605 33 291 0.0 0.0 0.00 0.63 0.00 91 1020.0
20170925062105 33 291 0.0 0.0 0.00 0.63 0.00 91 1020.0
20170925061605 33 291 0.0 0.0 0.00 0.63 0.00 91 1020.0
20170925061107 33 291 0.0 0.0 0.00 0.63 0.00 91 1020.0
20170925060604 33 291 0.0 0.0 0.00 0.63 0.00 91 1019.9
20170925060105 33 291 0.0 0.0 0.00 0.63 0.00 91 1019.7
20170925055605 33 291 0.0 0.0 0.00 0.63 0.63 91 1019.7
20170925055105 33 291 0.0 0.0 0.00 0.63 0.63 91 1019.7
20170925054605 33 291 0.0 0.0 0.00 0.63 0.63 91 1019.7
20170925054104 33 291 0.0 0.0 0.00 0.63 0.63 91 1019.7
20170925053605 33 291 0.0 0.0 0.00 0.63 0.63 91 1019.7
20170925053104 33 291 0.0 0.0 0.00 0.63 0.63 91 1019.7
20170925052605 33 291 0.0 0.0 0.00 0.63 0.63 91 1019.7
20170925052105 33 291 0.0 0.0 0.00 0.63 0.63 91 1019.7
20170925051604 33 291 0.0 0.0 0.00 0.63 0.63 91 1019.7
20170925051104 33 291 0.0 0.0 0.00 0.63 0.63 91 1019.6
20170925050604 32 291 0.0 0.0 0.00 0.63 0.63 90 1019.6
20170925050105 33 291 0.0 0.0 0.00 0.63 0.63 90 1019.6
20170925045604 33 291 0.0 0.0 0.00 0.63 0.63 90 1019.6
20170925045105 33 291 0.0 0.0 0.00 0.63 0.63 90 1019.6
20170925044605 33 291 0.0 0.0 0.00 0.63 0.63 91 1019.6
20170925044105 33 291 0.0 0.0 0.00 0.63 0.63 91 1019.6
20170925043604 33 291 0.0 0.0 0.00 0.63 0.63 91 1019.6
20170925043105 33 291 0.0 0.0 0.00 0.63 0.63 91 1019.6
20170925042605 33 291 0.0 0.0 0.00 0.63 0.63 91 1019.6
20170925042104 33 291 0.0 0.0 0.00 0.63 0.63 91 1019.6
20170925041604 33 291 0.0 0.0 0.00 0.63 0.63 91 1019.6
20170925041104 33 291 0.0 0.0 0.00 0.63 0.63 91 1019.4
20170925040605 33 291 0.0 0.0 0.00 0.63 0.63 91 1019.4
20170925040105 33 291 0.0 0.0 0.00 0.63 0.63 91 1019.4
20170925035605 33 291 0.0 0.0 0.00 0.63 0.63 91 1019.4
20170925035105 33 291 0.0 0.0 0.00 0.63 0.63 91 1019.4
20170925034604 33 291 0.0 0.0 0.00 0.63 0.63 90 1019.4
20170925034104 33 291 0.0 0.0 0.00 0.63 0.63 90 1019.4
20170925033605 33 291 0.0 0.0 0.00 0.63 0.63 90 1019.3
20170925033106 33 291 0.0 0.0 0.00 0.63 0.63 90 1019.3
20170925032605 33 291 0.0 0.0 0.00 0.63 0.63 90 1019.4
20170925032104 33 291 0.0 0.0 0.00 0.63 0.63 90 1019.4
20170925031605 33 292 0.0 0.0 0.00 0.63 0.63 90 1019.3
20170925031104 33 292 0.0 0.0 0.01 0.63 0.63 90 1019.3
20170925030605 33 292 0.0 0.0 0.01 0.63 0.63 90 1019.3
20170925030105 33 292 0.0 0.0 0.01 0.63 0.63 90 1019.3
20170925025605 33 292 0.0 0.0 0.01 0.63 0.63 90 1019.1
20170925025104 33 292 0.0 0.0 0.02 0.63 0.63 90 1019.1
20170925024605 33 292 0.0 0.0 0.02 0.63 0.63 90 1019.1
20170925024104 33 292 0.0 0.0 0.02 0.63 0.63 90 1019.1
20170925023604 33 292 0.0 0.0 0.02 0.63 0.63 90 1018.9
20170925023105 33 292 0.0 0.0 0.02 0.63 0.63 90 1018.9
20170925022604 33 292 0.0 0.0 0.02 0.63 0.63 90 1018.7
20170925022105 33 292 0.0 0.0 0.02 0.63 0.63 90 1018.7
20170925021604 33 292 0.0 0.0 0.02 0.63 0.63 90 1018.7
20170925021104 33 279 0.0 0.0 0.02 0.62 0.62 90 1018.6
20170925020605 33 260 0.0 0.0 0.02 0.62 0.62 90 1018.6
20170925020105 33 240 0.0 0.0 0.03 0.62 0.62 90 1018.6
20170925015605 33 240 0.0 0.0 0.03 0.62 0.62 90 1018.5
20170925015106 33 247 0.0 0.0 0.03 0.61 0.61 90 1026.0
20170925014604 33 240 0.0 0.0 0.04 0.61 0.61 90 1018.5
20170925014105 33 350 0.0 0.0 0.04 0.81 0.61 90 1026.0
20170925013605 33 239 0.0 0.0 0.05 0.81 0.61 90 1018.4
20170925013104 33 239 0.0 0.0 0.06 0.81 0.61 90 1018.3
20170925012605 33 239 0.0 0.0 0.08 0.81 0.61 90 1017.6
20170925012104 33 239 0.0 0.0 0.09 0.81 0.61 90 1017.6
20170925011604 33 238 0.0 0.0 0.11 0.81 0.61 90 1017.6
20170925011105 33 238 0.0 0.0 0.12 0.80 0.60 90 1017.6
20170925010605 33 235 0.0 0.0 0.14 0.80 0.60 90 1017.6
20170925010105 33 234 0.0 0.0 0.15 0.80 0.60 90 1017.6
20170925005605 33 279 0.0 0.0 0.14 0.79 0.59 90 1018.1
20170925005105 33 267 0.0 0.0 0.13 0.78 0.58 90 1018.1
20170925004605 33 264 0.0 0.0 0.12 0.77 0.57 90 1018.1
20170925004105 33 238 0.0 0.0 0.12 0.77 0.57 90 1018.1
20170925003605 33 239 0.0 0.0 0.11 0.76 0.56 90 1018.0
20170925003104 33 222 0.0 0.0 0.10 0.75 0.55 89 1018.0
20170925002604 33 271 0.0 0.0 0.09 0.73 0.53 89 1018.0
20170925002104 33 271 0.0 0.0 0.08 0.72 0.52 89 1018.0
20170925001604 33 287 0.0 0.0 0.06 0.70 0.50 89 1024.8
20170925001110 33 306 0.0 0.0 0.04 0.68 0.48 89 1024.7
20170925000604 33 292 0.0 0.0 0.02 0.66 0.46 89 1024.7
20170925000105 33 275 0.0 0.0 0.01 0.65 0.45 89 1024.5